Weather History for Monroe, MI

Change the Weather History Date:

Sunday, December 9, 2012

  Actual Average Record
Temperature  
Mean Temperature 40 °F -  
Max Temperature 42 °F 39 °F 62 °F (1946)
Min Temperature 37 °F 25 °F 1 °F (2000)
Degree Days  
Heating Degree Days 26    
Moisture  
Dew Point 37 °F    
Average Humidity 90    
Maximum Humidity 100    
Minimum Humidity 75    
Precipitation  
Precipitation 0.00 in - - ()
Sea Level Pressure  
Sea Level Pressure 29.95 in    
Wind  
Wind Speed 7 mph (East)    
Max Wind Speed 17 mph    
Max Gust Speed 25 mph    
Visibility 7 miles    
Events Fog , Rain    
Averages and records for this station are not official NWS values.
T = Trace of Precipitation, MM = Missing Value Source: NWS Daily Summary

Daily Weather History Graph

Daily Weather History Graph

Search for Another Location

Airport:

Trip Planner

Search our weather history database for the weather conditions in past years. The results will help you decide how hot, cold, wet, or windy it might be!

Date:

Astronomy

Dec. 09, 2012 Rise Set
Actual Time 7:50 AM EST 5:02 PM EST
Civil Twilight 7:18 AM EST 5:33 PM EST
Nautical Twilight 6:43 AM EST 6:08 PM EST
Astronomical Twilight 6:09 AM EST 6:42 PM EST
Moon 3:18 AM EST (12/9) 2:11 PM EST (12/9)
Length of Visible Light 10h 15m
Length of Day
9h 12m
Waning Crescent, 19% of the Moon is Illuminated
Dec 9
Waning Crescent
Dec 13
New
Dec 20
First Quarter
Dec 28
Full
Jan 4
Last Quarter

Hourly Weather History & Observations

Time (EST) Temp. Windchill Dew Point Humidity Pressure Visibility Wind Dir Wind Speed Gust Speed Precip Events Conditions
12:11 AM 37.4 °F 34.9 °F 33.8 °F 87% 30.15 in 10.0 mi NNE 3.5 mph - N/A   Overcast
12:31 AM 37.4 °F 33.8 °F 33.8 °F 87% 30.15 in 10.0 mi NNE 4.6 mph - N/A   Overcast
12:51 AM 37.4 °F 34.9 °F 33.8 °F 87% 30.15 in 10.0 mi NE 3.5 mph - N/A   Overcast
1:11 AM 37.4 °F 34.9 °F 33.8 °F 87% 30.15 in 10.0 mi NE 3.5 mph - N/A   Mostly Cloudy
1:31 AM 37.4 °F 32.8 °F 32.0 °F 81% 30.15 in 10.0 mi ENE 5.8 mph - N/A   Overcast
2:12 AM 37.4 °F 32.8 °F 33.8 °F 87% 30.15 in 10.0 mi NE 5.8 mph - N/A   Overcast
2:32 AM 37.4 °F 31.4 °F 33.8 °F 87% 30.15 in 10.0 mi ENE 8.1 mph - N/A   Overcast
2:52 AM 37.4 °F 31.4 °F 33.8 °F 87% 30.14 in 10.0 mi ENE 8.1 mph - N/A   Mostly Cloudy
3:12 AM 37.4 °F 32.1 °F 33.8 °F 87% 30.15 in 10.0 mi ENE 6.9 mph - N/A   Overcast
3:32 AM 37.4 °F 32.1 °F 33.8 °F 87% 30.15 in 10.0 mi East 6.9 mph - N/A   Mostly Cloudy
3:52 AM 37.4 °F 30.8 °F 32.0 °F 81% 30.15 in 10.0 mi ENE 9.2 mph - N/A   Overcast
4:12 AM 37.4 °F 30.8 °F 33.8 °F 87% 30.14 in 10.0 mi ENE 9.2 mph - N/A   Overcast
4:32 AM 37.4 °F 30.8 °F 33.8 °F 87% 30.13 in 10.0 mi ENE 9.2 mph - N/A   Overcast
4:52 AM 37.4 °F 32.1 °F 32.0 °F 81% 30.13 in 10.0 mi ENE 6.9 mph - N/A   Overcast
5:13 AM 37.4 °F 32.1 °F 32.0 °F 81% 30.14 in 10.0 mi East 6.9 mph - N/A   Overcast
5:33 AM 37.4 °F 30.8 °F 30.2 °F 75% 30.13 in 10.0 mi East 9.2 mph - N/A   Overcast
5:53 AM 37.4 °F 30.3 °F 30.2 °F 75% 30.14 in 10.0 mi ENE 10.4 mph - N/A   Overcast
6:13 AM 37.4 °F 30.8 °F 30.2 °F 75% 30.13 in 10.0 mi ENE 9.2 mph - N/A   Overcast
6:33 AM 37.4 °F 30.8 °F 32.0 °F 81% 30.13 in 10.0 mi ENE 9.2 mph - N/A   Overcast
6:53 AM 37.4 °F 31.4 °F 32.0 °F 81% 30.13 in 10.0 mi ENE 8.1 mph - N/A   Overcast
7:13 AM 37.4 °F 32.1 °F 32.0 °F 81% 30.13 in 10.0 mi ENE 6.9 mph - N/A   Overcast
7:33 AM 37.4 °F 31.4 °F 32.0 °F 81% 30.11 in 10.0 mi ENE 8.1 mph - N/A   Overcast
7:53 AM 37.4 °F 31.4 °F 33.8 °F 87% 30.11 in 10.0 mi ENE 8.1 mph - N/A   Overcast
8:13 AM 37.4 °F 30.8 °F 33.8 °F 87% 30.11 in 10.0 mi NE 9.2 mph - N/A   Overcast
8:34 AM 37.4 °F 31.4 °F 33.8 °F 87% 30.10 in 10.0 mi ENE 8.1 mph - N/A   Overcast
8:54 AM 37.4 °F 31.4 °F 33.8 °F 87% 30.09 in 10.0 mi ENE 8.1 mph - N/A   Overcast
9:34 AM 37.4 °F 30.8 °F 33.8 °F 87% 30.07 in 10.0 mi ENE 9.2 mph - N/A   Overcast
9:54 AM 37.4 °F 30.8 °F 33.8 °F 87% 30.06 in 10.0 mi ENE 9.2 mph - N/A   Overcast
10:14 AM 37.4 °F 32.1 °F 35.6 °F 93% 30.06 in 10.0 mi East 6.9 mph - N/A   Overcast
10:34 AM 41.0 °F 32.8 °F 35.6 °F 81% 30.05 in 10.0 mi East 16.1 mph 21.9 mph N/A   Overcast
10:54 AM 41.0 °F 33.1 °F 35.6 °F 81% 30.04 in 10.0 mi East 15.0 mph 21.9 mph N/A   Overcast
11:34 AM 42.8 °F 35.4 °F 35.6 °F 76% 30.01 in 10.0 mi East 15.0 mph 23.0 mph N/A   Light Drizzle
11:55 AM 41.0 °F 33.9 °F 37.4 °F 87% 29.99 in 10.0 mi East 12.7 mph 25.3 mph N/A   Light Drizzle
12:15 PM 41.0 °F 33.9 °F 37.4 °F 87% 29.98 in 3.0 mi East 12.7 mph 21.9 mph N/A Rain Light Rain
12:35 PM 39.2 °F 31.2 °F 37.4 °F 93% 29.96 in 3.0 mi East 13.8 mph 24.2 mph N/A Rain Light Rain
12:55 PM 39.2 °F 30.8 °F 37.4 °F 93% 29.95 in 7.0 mi East 15.0 mph 20.7 mph N/A Rain Light Rain
1:15 PM 39.2 °F 31.6 °F 39.2 °F 100% 29.93 in 5.0 mi East 12.7 mph 19.6 mph N/A Rain Rain
1:35 PM 41.0 °F 32.5 °F 39.2 °F 93% 29.91 in 5.0 mi East 17.3 mph 23.0 mph N/A Rain Light Rain
1:55 PM 41.0 °F 33.5 °F 39.2 °F 93% 29.90 in 5.0 mi East 13.8 mph 17.3 mph N/A Rain Light Rain
2:15 PM 41.0 °F 33.1 °F 39.2 °F 93% 29.87 in 5.0 mi East 15.0 mph 24.2 mph N/A Rain Rain
2:35 PM 41.0 °F 33.9 °F 39.2 °F 93% 29.87 in 10.0 mi East 12.7 mph 21.9 mph N/A   Overcast
2:56 PM 41.0 °F 33.9 °F 39.2 °F 93% 29.85 in 5.0 mi East 12.7 mph 19.6 mph N/A Rain Light Rain
3:31 PM 41.0 °F 35.2 °F 39.2 °F 93% 29.84 in 7.0 mi East 9.2 mph 18.4 mph N/A   Light Drizzle
3:51 PM 41.0 °F 34.7 °F 39.2 °F 93% 29.83 in 4.0 mi East 10.4 mph 17.3 mph N/A Rain Light Rain
4:11 PM 41.0 °F 35.8 °F 39.2 °F 93% 29.83 in 7.0 mi East 8.1 mph 16.1 mph N/A   Light Drizzle
4:31 PM 41.0 °F 35.2 °F 39.2 °F 93% 29.82 in 7.0 mi East 9.2 mph 18.4 mph N/A Rain Light Rain
4:51 PM 41.0 °F 33.9 °F 39.2 °F 93% 29.81 in 7.0 mi East 12.7 mph - N/A Rain Light Rain
5:11 PM 42.8 °F 37.0 °F 41.0 °F 93% 29.79 in 5.0 mi East 10.4 mph 17.3 mph N/A Rain Light Rain
5:31 PM 42.8 °F 38.0 °F 41.0 °F 93% 29.79 in 7.0 mi East 8.1 mph - N/A   Overcast
6:12 PM 42.8 °F 39.3 °F 42.8 °F 100% 29.78 in 1.8 mi East 5.8 mph - N/A   Drizzle
6:52 PM 42.8 °F 40.1 °F 42.8 °F 100% 29.76 in 1.8 mi ESE 4.6 mph - N/A   Overcast
7:12 PM 42.8 °F 40.1 °F 42.8 °F 100% 29.75 in 1.5 mi East 4.6 mph - N/A   Overcast
7:32 PM 42.8 °F 39.3 °F 42.8 °F 100% 29.74 in 1.5 mi ESE 5.8 mph - N/A   Overcast
7:52 PM 42.8 °F 39.3 °F 42.8 °F 100% 29.73 in 1.0 mi ESE 5.8 mph - N/A   Overcast
8:12 PM 42.8 °F - 42.8 °F 100% 29.71 in 0.8 mi Calm Calm - N/A Rain Light Rain
8:32 PM 42.8 °F - 42.8 °F 100% 29.71 in 0.8 mi Calm Calm - N/A   Overcast
9:13 PM 42.8 °F - 42.8 °F 100% 29.69 in 0.8 mi Calm Calm - N/A   Overcast
9:33 PM 42.8 °F - 42.8 °F 100% 29.68 in 1.0 mi Calm Calm - N/A   Overcast
9:53 PM 42.8 °F - 42.8 °F 100% 29.67 in 0.8 mi Calm Calm - N/A   Overcast
10:13 PM 42.8 °F - 42.8 °F 100% 29.67 in 0.5 mi Calm Calm - N/A Fog Fog
10:33 PM 42.8 °F - 42.8 °F 100% 29.65 in 0.5 mi Calm Calm - N/A Fog Fog
10:53 PM 42.8 °F - 42.8 °F 100% 29.64 in 0.5 mi Calm Calm - N/A Fog Fog
11:13 PM 42.8 °F - 42.8 °F 100% 29.63 in 0.2 mi Calm Calm - N/A Fog Fog
11:33 PM 42.8 °F - 42.8 °F 100% 29.63 in 0.2 mi Calm Calm - N/A Rain Rain
11:54 PM 42.8 °F - 42.8 °F 100% 29.63 in 0.5 mi Calm Calm - N/A Rain Light Rain